This demonstration page uses our WeatherBlox Daily Observations layout. Learn more.

Left ArrowRight Arrow

39.51506, -84.39828

Hourly Observations for December 20, 2015

Temp ( °F °C ) Dew Point ( °F °C ) Humidity (%) Winds ( mph kmh ) Pressure ( in mb ) Visibility ( mi km ) Precip ( " mm )
12:15 am 00:15 Clear 23 -5 17 -8.1 79 79 N N/A 30.56 1035 N/A N/A
12:35 am 00:35 Clear 24 -4.3 19 -7.5 79 79 N N/A N/A 10 16 N/A
12:55 am 00:55 Clear 23 -4.9 18 -7.9 80 80 N N/A N/A 10 16 N/A
1:15 am 01:15 Clear 23 -5.2 18 -8 81 81 N N/A 30.56 1035 10 16 N/A
1:35 am 01:35 Clear 23 -5.2 17 -8.1 80 80 N N/A 30.53 1034 10 16 N/A
1:55 am 01:55 Clear 22 -5.6 17 -8.2 82 82 N N/A 30.53 1034 10 16 N/A
2:15 am 02:15 Clear 23 -5.1 18 -7.9 81 81 N N/A 30.53 1034 10 16 N/A
2:35 am 02:35 Clear 22 -5.3 17 -8.2 80 80 N N/A 30.53 1034 10 16 N/A
2:55 am 02:55 Clear 23 -5.1 18 -7.9 81 81 N N/A 30.53 1034 10 16 N/A
3:15 am 03:15 Clear 23 -5.1 18 -7.6 83 83 N N/A 30.53 1034 10 16 N/A
3:35 am 03:35 Clear 23 -5.2 18 -7.7 83 83 N N/A 30.53 1034 10 16 N/A
3:55 am 03:55 Clear 22 -5.6 17 -8.1 83 83 N N/A 30.50 1033 10 16 N/A
4:15 am 04:15 Clear 22 -5.3 18 -7.6 84 84 N N/A 30.53 1034 10 16 N/A
4:35 am 04:35 Clear 22 -5.4 18 -7.6 85 85 N N/A 30.50 1033 10 16 N/A
4:55 am 04:55 Clear 23 -5 19 -7.3 84 84 N N/A 30.50 1033 10 16 N/A
5:15 am 05:15 Clear 22 -5.4 18 -7.7 84 84 N N/A 30.53 1034 10 16 N/A
5:35 am 05:35 Clear 23 -4.8 19 -7.1 84 84 N N/A 30.53 1034 10 16 N/A
5:55 am 05:55 Clear 23 -5 19 -7.3 84 84 N N/A 30.50 1033 10 16 N/A
6:15 am 06:15 Clear 23 -5 19 -7.3 84 84 N N/A 30.50 1033 10 16 N/A
6:35 am 06:35 Clear 23 -5 19 -7.3 84 84 N N/A 30.53 1034 10 16 N/A
6:55 am 06:55 Clear 24 -4.2 20 -6.5 84 84 N N/A 30.56 1035 10 16 N/A
7:15 am 07:15 Clear 24 -4.2 20 -6.6 84 84 N N/A 30.53 1034 10 16 N/A
7:35 am 07:35 Clear 24 -4.2 20 -6.6 84 84 N N/A 30.53 1034 10 16 N/A
7:55 am 07:55 Sunny 24 -4.7 19 -7.1 84 84 N N/A 30.50 1033 10 16 N/A
8:15 am 08:15 Sunny 24 -4.2 20 -6.6 84 84 W 3 6 30.50 1033 10 16 N/A
8:35 am 08:35 Sunny 27 -2.8 22 -5.7 81 81 N N/A 30.48 1032 10 16 N/A
8:55 am 08:55 Sunny 29 -1.5 24 -4.2 82 82 N N/A 30.48 1032 10 16 N/A
9:15 am 09:15 Sunny 29 -1.5 23 -5 77 77 W 3 6 30.48 1032 10 16 N/A
9:35 am 09:35 Sunny 32 undefined 25 -3.9 75 75 N N/A 30.48 1032 10 16 N/A
9:55 am 09:55 Sunny 34 1.2 26 -3.6 71 71 SW 3 6 30.48 1032 10 16 N/A
10:15 am 10:15 Sunny 34 1.2 26 -3.6 71 71 W 3 6 30.48 1032 10 16 N/A
10:35 am 10:35 Sunny 37 2.6 26 -3.5 64 64 N N/A 30.45 1031 10 16 N/A
10:55 am 10:55 Sunny 37 2.6 26 -3.1 66 66 N N/A 30.48 1032 10 16 N/A
11:15 am 11:15 Sunny 39 4 25 -4 56 56 SW 3 6 30.45 1031 10 16 N/A
11:35 am 11:35 Sunny 42 5.6 23 -4.8 47 47 SSW 7 11 30.45 1031 10 16 N/A
11:55 am 11:55 Sunny 44 6.7 23 -5.2 43 43 S 12 19 30.42 1030 10 16 N/A
12:15 pm 12:15 Sunny 45 7 22 -5.5 41 41 SSW 10 17 30.36 1028 10 16 N/A
12:35 pm 12:35 Sunny 47 8.2 24 -4.6 40 40 SSW 9 15 30.36 1028 10 16 N/A
12:55 pm 12:55 Sunny 47 8.2 24 -4.6 40 40 SSW 13 20 30.36 1028 10 16 N/A
1:15 pm 13:15 Sunny 47 8.5 24 -4.3 40 40 SSW 15 24 30.33 1027 10 16 N/A
1:35 pm 13:35 Sunny 49 9.6 26 -3.6 40 40 SSW 14 22 30.33 1027 10 16 N/A
1:55 pm 13:55 Sunny 49 9.6 25 -4 38 38 SSW 14 22 30.30 1026 10 16 N/A
2:15 pm 14:15 Sunny 49 9.6 25 -3.8 39 39 S 9 15 30.30 1026 10 16 N/A
2:35 pm 14:35 Sunny 49 9.6 24 -4.4 37 37 S 17 28 30.30 1026 10 16 N/A
2:55 pm 14:55 Sunny 49 9.6 24 -4.7 36 36 S 13 20 30.27 1025 10 16 N/A
3:15 pm 15:15 Sunny 49 9.6 24 -4.7 36 36 S 9 15 30.27 1025 10 16 N/A
3:35 pm 15:35 Sunny 49 9.6 23 -4.8 36 36 S 10 17 30.27 1025 10 16 N/A
3:55 pm 15:55 Sunny 49 9.6 23 -4.9 36 36 S 10 17 30.27 1025 10 16 N/A
4:15 pm 16:15 Sunny 49 9.6 23 -5.2 35 35 S 10 17 30.27 1025 10 16 N/A
4:35 pm 16:35 Sunny 49 9.6 22 -5.3 35 35 S 10 17 30.24 1024 10 16 N/A
4:55 pm 16:55 Sunny 49 9.6 23 -4.9 36 36 S 8 13 30.24 1024 10 16 N/A
5:15 pm 17:15 Sunny 49 9.6 22 -5.5 34 34 S 12 19 30.24 1024 10 16 N/A
5:35 pm 17:35 Clear 49 9.6 22 -5.3 35 35 S 8 13 30.24 1024 10 16 N/A
5:55 pm 17:55 Clear 49 9.6 23 -4.8 36 36 S 6 9 30.24 1024 10 16 N/A
6:15 pm 18:15 Clear 49 9.6 23 -5 36 36 S 8 13 30.24 1024 10 16 N/A
6:35 pm 18:35 Clear 49 9.6 23 -5 36 36 S 7 11 30.24 1024 10 16 N/A
6:55 pm 18:55 Clear 49 9.6 23 -4.8 36 36 S 6 9 30.24 1024 10 16 N/A
7:15 pm 19:15 Clear 49 9.4 23 -4.8 37 37 S 9 15 30.21 1023 10 16 N/A
7:35 pm 19:35 Clear 49 9.3 23 -4.9 37 37 S 7 11 30.21 1023 10 16 N/A
7:55 pm 19:55 Clear 49 9.6 23 -4.9 36 36 S 9 15 30.21 1023 10 16 N/A
8:15 pm 20:15 Clear 49 9.6 23 -4.9 36 36 S 9 15 30.21 1023 10 16 N/A
8:35 pm 20:35 Clear 49 9.6 22 -5.5 34 34 SSW 10 17 30.21 1023 10 16 N/A
8:55 pm 20:55 Clear 49 9.6 21 -6.1 33 33 SSW 13 20 30.21 1023 10 16 N/A
9:15 pm 21:15 Clear 49 9.6 20 -6.4 32 32 SSW 12 19 30.21 1023 10 16 N/A
9:35 pm 21:35 Clear 47 8.3 20 -6.9 34 34 SSW 8 13 30.21 1023 10 16 N/A
9:55 pm 21:55 Clear 47 8.2 19 -7 34 34 SSW 10 17 30.21 1023 10 16 N/A
10:15 pm 22:15 Clear 48 8.8 20 -6.5 34 34 S 10 17 30.18 1022 10 16 N/A
10:35 pm 22:35 Clear 47 8.2 19 -7 34 34 S 12 19 30.18 1022 10 16 N/A
10:55 pm 22:55 Clear 47 8.2 20 -6.5 35 35 SSW 12 19 30.18 1022 10 16 N/A
11:15 pm 23:15 Clear 47 8.2 20 -6.5 35 35 SSW 12 19 30.18 1022 10 16 N/A
11:35 pm 23:35 Clear 48 8.8 21 -6.1 35 35 S 9 15 30.18 1022 10 16 N/A
11:55 pm 23:55 Clear 49 9.5 23 -5.1 36 36 S 9 15 30.15 1021 10 16 N/A

Powered by AerisWeather